User: anonymous   Login
Location: Unspecified
(0.0000°N, 0.0000°E)
Time: 07:25:40
(UTC+02:00)
Language:

Ariane H10 - Orbit

View from above orbital plane
View from above orbital plane
View from above satellite
View from above satellite

Ground track
Ground track

The orbit data is extracted from the following two-line orbital elements,

1 19622U 88098B   15088.69822856  .00007378  00000-0  18691-2 0  9993
2 19622 004.0349 351.7381 6459239 242.3498 028.0470 03.36838902276570
Epoch (UTC): 29 March 2015 16:45:26
Eccentricity: 0.6459239
inclination: 4.0349°
perigee height: 278 km
apogee height: 24562 km
right ascension of ascending node: 351.7381°
argument of perigee: 242.3498°
revolutions per day: 3.36838902
mean anomaly at epoch: 28.0470°
orbit number at epoch: 27657

The dashed part of the orbit path shows where the satellite is in the earth's shadow,  

DLR